Weather observations for the past three days for
Boeing Field - King County International Airport
Imperial (Metric)
Date Time (pdt) Wind (mph) Vis. (mi.) Weather Sky Cond. Temperature (ºF) Relative Humidity Wind Chill (°F) Heat Index (°F) Pressure Precipitation (in)
Air Dwpt 6 hour altimeter (in) sea level (mb) 1 hr 3 hr 6 hr
Max. Min.
19 01:53 S 3 10.00 Fair CLR 64 54 70% 30.13 1020.1
19 00:53 W 3 10.00 Fair CLR 66 54 65% 30.12 1019.9
18 23:53 SW 3 10.00 Fair CLR 68 53.1 59% 30.11 1019.5
18 22:53 Calm 10.00 Fair CLR 69.1 54 86 69.1 59% 30.1 1019.3
18 21:53 SW 5 10.00 Fair CLR 73 54 51% 30.08 1018.7
18 20:53 SW 8 10.00 Fair CLR 75.9 53.1 45% 78 30.06 1017.8
18 19:53 S 9 10.00 Fair CLR 80.1 57 45% 80 30.04 1017.1
18 18:53 SW 10 10.00 Fair CLR 82.9 55 38% 82 30.02 1016.7
18 17:53 SW 8 10.00 Fair CLR 84 55 37% 83 30.02 1016.5
18 16:53 S 8 10.00 Fair CLR 84 54 84.9 70 36% 83 30.03 1016.8
18 15:53 Vrbl 7 10.00 Fair CLR 84 57 40% 83 30.04 1017.1
18 14:53 W 6 10.00 Fair CLR 82 57.9 44% 82 30.05 1017.5
18 13:53 SW 8 10.00 Fair CLR 79 57.9 49% 80 30.06 1018.0
18 12:53 Vrbl 6 10.00 Fair CLR 75.9 55.9 50% 78 30.07 1018.2
18 11:53 SW 7 10.00 Fair CLR 73 55 53% 30.07 1018.3
18 10:53 Vrbl 3 10.00 Fair CLR 70 55 70 60.1 59% 30.08 1018.6
18 09:53 SW 7 10.00 Fair CLR 68 54 61% 30.1 1019.2
18 08:53 W 6 10.00 Fair CLR 66 54 65% 30.1 1019.3
18 07:53 SW 6 10.00 Fair CLR 63 54 73% 30.09 1018.9
18 06:53 S 5 10.00 Fair CLR 61 53.1 75% 30.09 1019.0
18 05:53 S 5 10.00 Fair CLR 60.1 53.1 78% 30.08 1018.7
18 04:53 S 7 10.00 Fair CLR 60.1 54 66.9 60.1 80% 30.07 1018.3
18 03:53 S 7 10.00 Fair CLR 61 55 81% 30.07 1018.1
18 02:53 S 7 10.00 Fair CLR 62.1 55 78% 30.06 1017.9
18 01:53 SW 5 10.00 Fair CLR 63 55 76% 30.06 1018.0
18 00:53 S 3 10.00 Fair CLR 64.9 55.9 73% 30.06 1017.7
17 23:53 S 10 10.00 Fair CLR 66 55 68% 30.05 1017.5
17 22:53 S 7 10.00 Fair CLR 66 55 86 66 68% 30.03 1016.9
17 21:53 Calm 10.00 Fair CLR 70 57 64% 30.01 1016.2
17 20:53 S 12 10.00 Fair CLR 75 57.9 55% 78 29.99 1015.5
17 19:53 SW 3 10.00 Fair CLR 80.1 60.1 51% 81 29.96 1014.5
17 18:53 Vrbl 6 10.00 Fair CLR 82.9 59 44% 83 29.95 1014.3
17 17:53 S 9 10.00 Fair CLR 84 59 43% 84 29.96 1014.4
17 16:53 S 9 10.00 Fair CLR 84 60.1 84.9 72 44% 84 29.97 1014.9
17 15:53 S 9 10.00 Fair CLR 82.9 60.1 46% 83 29.97 1014.9
17 14:53 Vrbl 6 10.00 Fair CLR 82.9 60.1 46% 83 29.97 1014.8
17 13:53 SW 8 10.00 Fair CLR 82 60.1 47% 82 29.96 1014.5
17 12:53 Calm 10.00 Fair CLR 81 60.1 49% 82 29.96 1014.5
17 11:53 Calm 10.00 Fair CLR 75.9 59 56% 78 29.97 1014.7
17 10:53 S 5 10.00 Mostly Cloudy SCT150 BKN250 72 59 73.9 68 64% 29.97 1014.9
17 09:53 W 6 10.00 Overcast SCT130 BKN160 OVC200 73 59 62% 29.97 1014.7
17 08:53 Calm 10.00 Fair CLR 73 59 62% 29.94 1013.9
17 07:53 Calm 10.00 Mostly Cloudy SCT150 BKN250 72 59 64% 29.96 1014.7
17 06:53 SE 5 10.00 Mostly Cloudy SCT150 BKN250 69.1 57.9 68% 29.97 1015.0
17 05:53 Vrbl 3 10.00 Fair CLR 69.1 57 66% 29.97 1014.7
17 04:53 S 5 10.00 Fair CLR 69.1 57.9 77 68 68% 29.96 1014.4
17 03:53 Calm 10.00 Fair CLR 69.1 57 66% 29.92 1013.3
17 02:53 Calm 10.00 Fair CLR 69.1 57 66% 29.93 1013.6
17 01:53 NW 3 10.00 Fair CLR 71.1 57 61% 29.92 1013.0
17 00:53 N 5 10.00 Fair CLR 73 57 57% 29.91 1012.7
16 23:53 NW 3 10.00 Fair CLR 75 55.9 52% 78 29.89 1012.3
16 22:53 NW 3 10.00 Fair CLR 77 55.9 88 75.9 48% 79 29.89 1012.2
16 21:53 NW 3 10.00 Fair CLR 79 55.9 45% 80 29.89 1012.1
16 20:53 NW 5 10.00 Fair CLR 81 55.9 42% 81 29.88 1011.9
16 19:53 NW 8 10.00 Fair CLR 84 57 40% 83 29.88 1011.9
16 18:53 NW 6 10.00 Fair CLR 86 55.9 36% 85 29.89 1012.0
16 17:53 NW 8 10.00 Fair CLR 87.1 53.1 31% 85 29.9 1012.4
16 16:53 NW 7 10.00 Fair CLR 88 54 88 73 31% 86 29.92 1013.0
16 15:53 NW 10 G 17 10.00 Fair CLR 86 54 33% 84 29.93 1013.5
16 14:53 NW 8 G 16 10.00 Fair CLR 84 54 36% 83 29.95 1014.2
16 13:53 Vrbl 7 10.00 Fair CLR 82.9 55.9 40% 82 29.97 1014.7
16 12:53 Vrbl 6 10.00 Fair CLR 79 55.9 45% 80 29.98 1015.3
16 11:53 Vrbl 6 10.00 Fair CLR 75.9 55 48% 78 30 1015.9
16 10:53 NW 6 10.00 Fair CLR 73 55 73 61 53% 30.01 1016.3
16 09:53 NW 5 10.00 Fair CLR 70 55 59% 30.02 1016.6
16 08:53 NW 6 10.00 Fair CLR 68 57 68% 30.03 1016.7
16 07:53 Vrbl 3 10.00 Fair CLR 66 57 73% 30.03 1017.0
16 06:53 Calm 10.00 Fair CLR 63 55.9 78% 30.03 1016.8
16 05:53 Calm 10.00 Fair CLR 61 55.9 84% 30.03 1016.8
16 04:53 NW 5 10.00 Fair CLR 62.1 55.9 70 62.1 80% 30.02 1016.6
16 03:53 Vrbl 3 10.00 Fair CLR 62.1 55.9 80% 30.02 1016.6
16 02:53 NW 3 10.00 Fair CLR 63 57 81% 30.03 1016.8
Date Time (pdt) Wind (mph) Vis. (mi.) Weather Sky Cond. Air Dwpt Max. Min. Relative Humidity Wind Chill (°F) Heat Index (°F) altimeter (in) sea level (mb) 1 hr 3 hr 6 hr
6 hour
Temperature (ºF) Pressure Precipitation (in)